Regional Weather Roundup
Issued by NWS

Home | Current Version | Previous Version | Text Only | Print | Product List | Glossary Off
Versions: 1 2 3 4 5 6 7 8 9 10 11 12 13 14 15 16 17 18 19 20 21 22 23 24 25 26 27 28 29 30 31 32 33 34 35 36 37 38 39 40 41 42 43 44 45 46 47 48 49 50

000
ASUS43 KFSD 281410
RWRSD

WEATHER ROUNDUP FOR SOUTH DAKOTA
NATIONAL WEATHER SERVICE SIOUX FALLS SD
800 AM CST WED JAN 28 2015

NOTE: "FAIR" INDICATES FEW OR NO CLOUDS BELOW 12,000 FEET WITH NO
SIGNIFICANT WEATHER AND/OR OBSTRUCTIONS TO VISIBILITY.


SDZ001>005-009-010-012>017-281500-
NORTHWEST AND NORTH CENTRAL SOUTH DAKOTA

CITY           SKY/WX    TMP DP  RH WIND       PRES   REMARKS
BUFFALO          N/A     43  30  60 W9        29.76R
FAITH            N/A     40  30  67 W12       29.76R
MOBRIDGE       CLOUDY    31  28  89 NW5       29.69R WCI  26
$$

SDZ012>016-024>037-041>051-057-063-072>074-281500-
SOUTHWEST AND SOUTH CENTRAL SOUTH DAKOTA

CITY           SKY/WX    TMP DP  RH WIND       PRES   REMARKS
RAPID CTY ARPT PTCLDY    46  28  49 NW12      29.81R
PIERRE         MOCLDY    30  29  96 NW7       29.71F WCI  23
CUSTER         PTCLDY    36  25  64 SW7       29.89R
ELLSWORTH AFB  PTCLDY    49  29  45 NW21      29.80S
PHILIP         MOCLDY    36  29  75 W13       29.77R
PINE RIDGE     MOCLDY    46  30  53 W8        29.87R
SPEARFISH      FAIR      46  27  46 W10       29.90R
WINNER         FAIR      48  31  51 W13       29.72R
$$

SDZ004>011-016>023-039-040-281500-
NORTHEAST SOUTH DAKOTA

CITY           SKY/WX    TMP DP  RH WIND       PRES   REMARKS
ABERDEEN       MOCLDY    31  28  89 CALM      29.73F
WATERTOWN      MOCLDY    32  29  88 SE8       29.75S WCI  25
SISSETON         N/A     32  31  96 S12       29.79S WCI  23
$$

SDZ017-020-022-023-036>040-048>070-281500-
SOUTHEAST SOUTH DAKOTA

CITY           SKY/WX    TMP DP  RH WIND       PRES   REMARKS
SIOUX FALLS    MOCLDY    33  29  85 S15       29.79F WCI  23
HURON          MOCLDY    32  30  92 SE7       29.71F WCI  26
CHAMBERLAIN    CLOUDY    36  32  85 W12       29.70R
MITCHELL       MOCLDY    34  30  85 S15       29.72F WCI  24
YANKTON        PTCLDY    32  28  86 SE9       29.80F WCI  24
$$

ABBREVIATIONS USED IN REMARKS
   TC - TEMPERATURE IN CELSIUS
  WCI - WIND CHILL INDEX
   HX - HEAT INDEX
  VSB - VISIBILITY




USA.gov is the U.S. government's official web portal to all federal, state and local government web resources and services.